Weather History for Miami, FL

Change the Weather History Date:

Sunday, September 22, 2013

  Actual Average Record
Temperature  
Mean Temperature 84 °F 83 °F  
Max Temperature 91 °F 89 °F 94 °F (1990)
Min Temperature 77 °F 76 °F 64 °F (1938)
Degree Days  
Heating Degree Days 0 0  
Month to date heating degree days 0 0  
Since 1 July heating degree days 0 0  
Cooling Degree Days 19 18  
Month to date cooling degree days 395 398  
Year to date cooling degree days 3532 3473  
Growing Degree Days 34 (Base 50)    
Moisture  
Dew Point 73 °F    
Average Humidity 70    
Maximum Humidity 88    
Minimum Humidity 52    
Precipitation  
Precipitation T in 0.34 in 4.62 in (1948)
Month to date precipitation 7.88 7.27  
Year to date precipitation 50.56 47.67  
Snow  
Snow 0.00 in - - ()
Month to date snowfall 0.0  
Since 1 July snowfall 0.0  
Since 1 September snowfall 0.0  
Snow Depth 0.00 in    
Sea Level Pressure  
Sea Level Pressure 29.83 in    
Wind  
Wind Speed 6 mph (SSW)    
Max Wind Speed 13 mph    
Max Gust Speed 22 mph    
Visibility 10 miles    
Events Rain    
T = Trace of Precipitation, MM = Missing Value Source: NWS Daily Summary

Daily Weather History Graph

Daily Weather History Graph

Search for Another Location

Airport:

Trip Planner

Search our weather history database for the weather conditions in past years. The results will help you decide how hot, cold, wet, or windy it might be!

Date:

Astronomy

Sep. 22, 2013 Rise Set
Actual Time 7:09 AM EDT 7:17 PM EDT
Civil Twilight 6:46 AM EDT 7:40 PM EDT
Nautical Twilight 6:20 AM EDT 8:07 PM EDT
Astronomical Twilight 5:53 AM EDT 8:33 PM EDT
Moon 9:30 PM EDT (9/22) 10:05 AM EDT (9/22)
Length of Visible Light 12h 53m
Length of Day
12h 07m
Waning Gibbous, 89% of the Moon is Illuminated
Sep 22
Waning Gibbous
Sep 26
Last Quarter
Oct 4
New
Oct 11
First Quarter
Oct 18
Full

Hourly Weather History & Observations

Time (EDT) Temp. Heat Index Dew Point Humidity Pressure Visibility Wind Dir Wind Speed Gust Speed Precip Events Conditions
12:53 AM 80.1 °F 84.5 °F 73.9 °F 81% 29.84 in 10.0 mi Calm Calm - N/A   Mostly Cloudy
1:53 AM 79.0 °F - 73.0 °F 82% 29.83 in 10.0 mi East 3.5 mph - N/A   Scattered Clouds
2:53 AM 79.0 °F - 75.0 °F 88% 29.82 in 10.0 mi South 4.6 mph - 0.00 in Rain Light Rain
3:53 AM 79.0 °F - 75.0 °F 88% 29.81 in 10.0 mi Calm Calm - 0.00 in   Mostly Cloudy
4:53 AM 79.0 °F - 73.9 °F 84% 29.80 in 10.0 mi South 3.5 mph - N/A   Mostly Cloudy
5:53 AM 77.0 °F - 73.9 °F 90% 29.81 in 10.0 mi SSW 3.5 mph - N/A   Scattered Clouds
6:53 AM 78.1 °F - 73.9 °F 87% 29.83 in 10.0 mi Calm Calm - N/A   Mostly Cloudy
7:53 AM 79.0 °F - 73.9 °F 84% 29.84 in 10.0 mi Calm Calm - N/A   Mostly Cloudy
8:53 AM 81.0 °F 86.7 °F 75.0 °F 82% 29.84 in 10.0 mi South 4.6 mph - N/A   Mostly Cloudy
9:53 AM 84.0 °F 91.9 °F 75.0 °F 74% 29.86 in 10.0 mi South 8.1 mph - N/A   Mostly Cloudy
10:53 AM 86.0 °F 93.0 °F 73.0 °F 65% 29.86 in 10.0 mi South 9.2 mph 18.4 mph N/A   Mostly Cloudy
11:53 AM 84.9 °F 91.4 °F 73.0 °F 67% 29.85 in 10.0 mi SSW 11.5 mph 18.4 mph 0.00 in Rain Light Rain
12:53 PM 89.1 °F 97.0 °F 73.0 °F 59% 29.84 in 10.0 mi South 8.1 mph - 0.00 in   Mostly Cloudy
1:53 PM 90.0 °F 95.4 °F 70.0 °F 52% 29.82 in 10.0 mi South 9.2 mph - N/A   Mostly Cloudy
2:53 PM 88.0 °F 97.5 °F 75.0 °F 65% 29.81 in 10.0 mi SSE 9.2 mph 16.1 mph N/A   Scattered Clouds
3:53 PM 88.0 °F 96.5 °F 73.9 °F 63% 29.79 in 10.0 mi SSE 9.2 mph - N/A   Mostly Cloudy
4:53 PM 90.0 °F 95.4 °F 70.0 °F 52% 29.78 in 10.0 mi SW 6.9 mph - N/A   Mostly Cloudy
5:53 PM 88.0 °F 93.8 °F 71.1 °F 57% 29.79 in 10.0 mi WSW 8.1 mph - N/A   Mostly Cloudy
6:53 PM 87.1 °F 94.5 °F 73.0 °F 63% 29.82 in 10.0 mi WNW 5.8 mph - N/A   Mostly Cloudy
7:53 PM 86.0 °F 93.0 °F 73.0 °F 65% 29.84 in 10.0 mi West 4.6 mph - N/A   Mostly Cloudy
8:53 PM 84.9 °F 92.1 °F 73.9 °F 69% 29.86 in 10.0 mi WSW 5.8 mph - N/A   Mostly Cloudy
9:53 PM 84.0 °F 91.2 °F 73.9 °F 72% 29.88 in 10.0 mi WSW 5.8 mph - N/A   Mostly Cloudy
10:53 PM 82.0 °F 88.6 °F 75.0 °F 79% 29.89 in 10.0 mi South 5.8 mph - N/A   Mostly Cloudy
11:53 PM 81.0 °F 86.7 °F 75.0 °F 82% 29.90 in 10.0 mi SSW 4.6 mph - N/A   Mostly Cloudy